McKinleyville, CA

7:51 AM PST on February 20, 2017 (GMT -0800)
Arcata

Weather History for KACV - February, 2014

Change the Weather History Date:

Saturday, February 1, 2014

  Actual Average Record
Temperature  
Mean Temperature 42 °F -  
Max Temperature 52 °F 54 °F 66 °F (2005)
Min Temperature 33 °F 38 °F 30 °F (1999)
Degree Days  
Heating Degree Days 22    
Moisture  
Dew Point 34 °F    
Average Humidity 72    
Maximum Humidity 92    
Minimum Humidity 46    
Precipitation  
Precipitation 0.00 in - - ()
Sea Level Pressure  
Sea Level Pressure 30.13 in    
Wind  
Wind Speed 6 mph (SE)    
Max Wind Speed 14 mph    
Max Gust Speed -    
Visibility 10 miles    
Events      
Averages and records for this station are not official NWS values.
T = Trace of Precipitation, MM = Missing Value Source: NWS Daily Summary

Daily Weather History Graph

Daily Weather History Graph

Search for Another Location

Airport or City:

Trip Planner

Search our weather history database for the weather conditions in past years. The results will help you decide how hot, cold, wet, or windy it might be!

Date:

Astronomy

Feb. 01, 2014 Rise Set
Actual Time 7:26 AM PST 5:33 PM PST
Civil Twilight 6:57 AM PST 6:02 PM PST
Nautical Twilight 6:24 AM PST 6:35 PM PST
Astronomical Twilight 5:52 AM PST 7:07 PM PST
Moon 8:18 AM PST (2/1) 8:17 PM PST (2/1)
Length of Visible Light 11h 05m
Length of Day
10h 06m
Waxing Crescent, 5% of the Moon is Illuminated
Feb 1
Waxing Crescent
Feb 6
First Quarter
Feb 14
Full
Feb 22
Last Quarter
Mar 1
New

Hourly Weather History & Observations

Time (PST) Temp. Windchill Dew Point Humidity Pressure Visibility Wind Dir Wind Speed Gust Speed Precip Events Conditions
12:53 AM 35.1 °F 31.0 °F 33.1 °F 92% 30.21 in 10.0 mi East 4.6 mph - N/A   Clear
1:53 AM 35.1 °F 32.2 °F 32.0 °F 89% 30.21 in 10.0 mi East 3.5 mph - N/A   Clear
2:53 AM 34.0 °F 28.8 °F 30.9 °F 89% 30.22 in 10.0 mi East 5.8 mph - N/A   Clear
3:53 AM 35.1 °F 29.3 °F 32.0 °F 89% 30.21 in 10.0 mi East 6.9 mph - N/A   Clear
4:53 AM 33.1 °F 28.7 °F 30.9 °F 92% 30.21 in 10.0 mi East 4.6 mph - N/A   Clear
5:53 AM 33.1 °F 28.7 °F 30.9 °F 92% 30.21 in 10.0 mi East 4.6 mph - N/A   Clear
6:53 AM 34.0 °F 29.8 °F 30.9 °F 89% 30.21 in 10.0 mi East 4.6 mph - N/A   Clear
7:53 AM 35.1 °F 29.3 °F 30.9 °F 85% 30.20 in 10.0 mi East 6.9 mph - N/A   Clear
8:53 AM 39.9 °F 36.7 °F 34.0 °F 79% 30.21 in 10.0 mi ESE 4.6 mph - N/A   Clear
9:53 AM 44.1 °F 41.5 °F 35.1 °F 71% 30.20 in 10.0 mi ESE 4.6 mph - N/A   Clear
10:53 AM 48.0 °F - 35.1 °F 61% 30.20 in 10.0 mi SW 5.8 mph - N/A   Clear
11:53 AM 50.0 °F - 39.0 °F 66% 30.17 in 10.0 mi West 9.2 mph - N/A   Clear
12:53 PM 50.0 °F - 39.0 °F 66% 30.14 in 10.0 mi West 8.1 mph - N/A   Clear
1:53 PM 51.1 °F - 37.0 °F 59% 30.12 in 10.0 mi West 4.6 mph - N/A   Clear
2:53 PM 51.1 °F - 35.1 °F 54% 30.12 in 10.0 mi WSW 6.9 mph - N/A   Partly Cloudy
3:53 PM 52.0 °F - 36.0 °F 54% 30.09 in 10.0 mi SSW 4.6 mph - N/A   Partly Cloudy
4:53 PM 48.9 °F - 36.0 °F 61% 30.08 in 10.0 mi South 3.5 mph - N/A   Clear
5:53 PM 45.0 °F 43.5 °F 36.0 °F 71% 30.06 in 10.0 mi SE 3.5 mph - N/A   Clear
6:53 PM 43.0 °F 38.8 °F 36.0 °F 76% 30.05 in 10.0 mi East 6.9 mph - N/A   Overcast
7:53 PM 45.0 °F 41.8 °F 37.0 °F 74% 30.03 in 10.0 mi ESE 5.8 mph - N/A   Mostly Cloudy
8:53 PM 48.0 °F - 35.1 °F 61% 30.00 in 10.0 mi SE 13.8 mph - N/A   Mostly Cloudy
9:53 PM 50.0 °F - 30.0 °F 46% 29.98 in 10.0 mi SSE 10.4 mph - N/A   Overcast
10:53 PM 46.0 °F 41.4 °F 30.0 °F 54% 29.95 in 10.0 mi SSW 9.2 mph - N/A   Mostly Cloudy
11:53 PM 48.0 °F - 28.0 °F 46% 29.94 in 10.0 mi SE 9.2 mph - N/A   Clear